When you browse on this site, cookies collect data to enhance your experience and personalize the content and advertising you see.
Visit our Privacy Policy to learn more. By continuing to use the site, you agree to this use of cookies and data.
  • In United Kingdom
  • List of Countries
  • For 7 days
  • Water Temperature
  • Satellite Maps
  • Weather Map
  • Weather Widgets
  • user-avatar
    Login

    Hourly Weather Kweta

    Today, 21 July, Sunday

    Time Temperature Precipitation Wind Pressure Humidity
    00:00 +25°C° 0 mm 2 mps 615 mmHg 62%
    01:00 +25°C° 0 mm 2 mps 615 mmHg 67%
    02:00 +24°C° 0 mm 2 mps 615 mmHg 68%
    03:00 +24°C° 0 mm 1 mps 614 mmHg 70%
    04:00 +24°C° 0 mm 1 mps 614 mmHg 71%
    05:00 +25°C° 0 mm 1 mps 615 mmHg 66%
    06:00 +26°C° 0 mm 1 mps 616 mmHg 60%
    07:00 +27°C° 0 mm 1 mps 617 mmHg 55%
    08:00 +29°C° 0 mm 1 mps 617 mmHg 48%
    09:00 +30°C° 0 mm 2 mps 617 mmHg 42%
    10:00 +32°C° 0 mm 2 mps 618 mmHg 35%
    11:00 +34°C° 0 mm 3 mps 618 mmHg 33%
    12:00 +35°C° 0 mm 3 mps 618 mmHg 30%
    13:00 +36°C° 0 mm 3 mps 618 mmHg 28%
    14:00 +34°C° 0.3 mm 4 mps 617 mmHg 33%
    15:00 +33°C° 0.3 mm 4 mps 616 mmHg 38%
    16:00 +32°C° 0.3 mm 5 mps 615 mmHg 43%
    17:00 +29°C° 1.6 mm 5 mps 615 mmHg 47%
    18:00 +27°C° 1.6 mm 5 mps 615 mmHg 52%
    19:00 +26°C° 1.6 mm 4 mps 615 mmHg 56%
    20:00 +26°C° 0.1 mm 4 mps 615 mmHg 53%
    21:00 +26°C° 0.1 mm 3 mps 615 mmHg 50%
    22:00 +26°C° 0.1 mm 2 mps 615 mmHg 46%
    23:00 +26°C° 0 mm 2 mps 615 mmHg 47%

    Tomorrow, 22 July, Monday

    Time Temperature Precipitation Wind Pressure Humidity
    00:00 +26°C° 0 mm 1 mps 615 mmHg 48%
    01:00 +24°C° 0 mm 0 mps 614 mmHg 49%
    02:00 +23°C° 0 mm 0 mps 614 mmHg 49%
    03:00 +23°C° 0 mm 0 mps 614 mmHg 50%
    04:00 +22°C° 0 mm 0 mps 614 mmHg 51%
    05:00 +24°C° 0 mm 0 mps 615 mmHg 46%
    06:00 +25°C° 0 mm 0 mps 616 mmHg 41%
    07:00 +27°C° 0 mm 0 mps 616 mmHg 36%
    08:00 +30°C° 0 mm 1 mps 617 mmHg 33%
    09:00 +31°C° 0 mm 1 mps 617 mmHg 30%
    10:00 +32°C° 0 mm 1 mps 617 mmHg 28%
    11:00 +34°C° 0 mm 2 mps 617 mmHg 25%
    12:00 +36°C° 0 mm 2 mps 617 mmHg 22%
    13:00 +37°C° 0 mm 3 mps 617 mmHg 20%
    14:00 +37°C° 0 mm 3 mps 617 mmHg 19%
    15:00 +37°C° 0 mm 3 mps 616 mmHg 19%
    16:00 +37°C° 0 mm 4 mps 616 mmHg 19%
    17:00 +36°C° 0 mm 3 mps 616 mmHg 22%
    18:00 +34°C° 0 mm 3 mps 615 mmHg 25%
    19:00 +33°C° 0 mm 3 mps 615 mmHg 28%
    20:00 +31°C° 0 mm 2 mps 615 mmHg 32%
    21:00 +30°C° 0 mm 2 mps 615 mmHg 36%
    22:00 +29°C° 0 mm 2 mps 614 mmHg 40%
    23:00 +29°C° 0 mm 1 mps 614 mmHg 42%

    Day after tomorrow, 23 July, Tuesday

    Time Temperature Precipitation Wind Pressure Humidity
    00:00 +28°C° 0 mm 1 mps 614 mmHg 44%
    01:00 +28°C° 0 mm 1 mps 614 mmHg 45%
    02:00 +27°C° 0 mm 1 mps 613 mmHg 47%
    03:00 +25°C° 0 mm 0 mps 613 mmHg 48%
    04:00 +24°C° 0 mm 0 mps 613 mmHg 49%
    05:00 +27°C° 0 mm 1 mps 614 mmHg 45%
    06:00 +29°C° 0 mm 1 mps 615 mmHg 41%
    07:00 +30°C° 0 mm 1 mps 616 mmHg 37%
    08:00 +31°C° 0 mm 1 mps 616 mmHg 33%
    09:00 +32°C° 0 mm 2 mps 617 mmHg 30%
    10:00 +35°C° 0 mm 2 mps 617 mmHg 26%
    11:00 +36°C° 0 mm 2 mps 617 mmHg 24%
    12:00 +37°C° 0 mm 3 mps 617 mmHg 22%
    13:00 +38°C° 0 mm 3 mps 617 mmHg 20%
    14:00 +37°C° 0 mm 3 mps 616 mmHg 20%
    15:00 +37°C° 0 mm 3 mps 616 mmHg 20%
    16:00 +37°C° 0 mm 4 mps 616 mmHg 20%
    17:00 +36°C° 0 mm 3 mps 616 mmHg 23%
    18:00 +35°C° 0 mm 3 mps 615 mmHg 25%
    19:00 +34°C° 0 mm 3 mps 615 mmHg 28%
    20:00 +32°C° 0 mm 2 mps 615 mmHg 32%
    21:00 +31°C° 0 mm 2 mps 615 mmHg 35%
    22:00 +30°C° 0 mm 1 mps 614 mmHg 39%
    23:00 +30°C° 0 mm 1 mps 614 mmHg 41%

    24 July, Wednesday

    Time Temperature Precipitation Wind Pressure Humidity
    00:00 +29°C° 0 mm 1 mps 614 mmHg 43%
    01:00 +26°C° 0 mm 0 mps 613 mmHg 45%
    02:00 +28°C° 0 mm 1 mps 613 mmHg 45%
    03:00 +27°C° 0 mm 1 mps 613 mmHg 46%
    04:00 +27°C° 0 mm 1 mps 613 mmHg 47%
    05:00 +28°C° 0 mm 2 mps 614 mmHg 43%
    06:00 +29°C° 0 mm 2 mps 615 mmHg 39%
    07:00 +30°C° 0 mm 3 mps 615 mmHg 35%
    08:00 +32°C° 0 mm 2 mps 616 mmHg 28%
    09:00 +34°C° 0 mm 2 mps 616 mmHg 20%
    10:00 +36°C° 0 mm 2 mps 617 mmHg 13%
    11:00 +37°C° 0 mm 2 mps 617 mmHg 12%
    12:00 +38°C° 0 mm 3 mps 616 mmHg 11%
    13:00 +39°C° 0 mm 3 mps 616 mmHg 10%
    14:00 +39°C° 0 mm 3 mps 616 mmHg 10%
    15:00 +40°C° 0 mm 4 mps 616 mmHg 10%
    16:00 +40°C° 0 mm 5 mps 615 mmHg 10%
    17:00 +39°C° 0 mm 5 mps 615 mmHg 11%
    18:00 +36°C° 0 mm 4 mps 615 mmHg 11%
    19:00 +35°C° 0 mm 4 mps 614 mmHg 12%
    20:00 +33°C° 0 mm 3 mps 614 mmHg 14%
    21:00 +31°C° 0 mm 2 mps 614 mmHg 15%
    22:00 +30°C° 0 mm 1 mps 613 mmHg 16%
    23:00 +29°C° 0 mm 1 mps 613 mmHg 18%

    25 July, Thursday

    Time Temperature Precipitation Wind Pressure Humidity
    00:00 +28°C° 0 mm 1 mps 613 mmHg 20%
    01:00 +26°C° 0 mm 0 mps 612 mmHg 22%
    02:00 +27°C° 0 mm 1 mps 612 mmHg 23%
    03:00 +26°C° 0 mm 1 mps 612 mmHg 25%
    04:00 +26°C° 0 mm 1 mps 612 mmHg 26%
    05:00 +28°C° 0 mm 1 mps 613 mmHg 21%
    06:00 +30°C° 0 mm 1 mps 614 mmHg 16%
    07:00 +32°C° 0 mm 1 mps 615 mmHg 12%
    08:00 +34°C° 0 mm 2 mps 615 mmHg 10%
    09:00 +35°C° 0 mm 2 mps 616 mmHg 9%
    10:00 +37°C° 0 mm 2 mps 616 mmHg 8%
    11:00 +38°C° 0 mm 3 mps 616 mmHg 8%
    12:00 +39°C° 0 mm 3 mps 616 mmHg 8%
    13:00 +40°C° 0 mm 3 mps 616 mmHg 7%
    14:00 +41°C° 0 mm 4 mps 615 mmHg 8%
    15:00 +41°C° 0 mm 4 mps 615 mmHg 8%
    16:00 +41°C° 0 mm 5 mps 614 mmHg 9%
    17:00 +38°C° 0 mm 4 mps 614 mmHg 11%
    18:00 +36°C° 0 mm 3 mps 613 mmHg 13%
    19:00 +33°C° 0 mm 1 mps 613 mmHg 15%
    20:00 +32°C° 0 mm 2 mps 612 mmHg 18%
    21:00 +31°C° 0 mm 2 mps 612 mmHg 22%
    22:00 +30°C° 0 mm 2 mps 612 mmHg 26%
    23:00 +29°C° 0 mm 1 mps 612 mmHg 31%

    26 July, Friday

    Time Temperature Precipitation Wind Pressure Humidity
    00:00 +28°C° 0 mm 1 mps 612 mmHg 35%
    01:00 +28°C° 0 mm 1 mps 611 mmHg 40%
    02:00 +27°C° 0 mm 1 mps 611 mmHg 42%
    03:00 +26°C° 0 mm 1 mps 611 mmHg 45%
    04:00 +26°C° 0 mm 1 mps 611 mmHg 47%
    05:00 +27°C° 0 mm 1 mps 612 mmHg 41%
    06:00 +29°C° 0 mm 1 mps 613 mmHg 36%
    07:00 +30°C° 0 mm 1 mps 614 mmHg 30%
    08:00 +32°C° 0 mm 1 mps 614 mmHg 26%
    09:00 +34°C° 0 mm 2 mps 615 mmHg 22%
    10:00 +36°C° 0 mm 3 mps 615 mmHg 17%
    11:00 +36°C° 0 mm 3 mps 615 mmHg 17%
    12:00 +37°C° 0 mm 4 mps 615 mmHg 17%
    13:00 +39°C° 0 mm 5 mps 615 mmHg 17%
    14:00 +39°C° 0 mm 5 mps 614 mmHg 18%
    15:00 +37°C° 0 mm 5 mps 614 mmHg 20%
    16:00 +37°C° 0 mm 5 mps 614 mmHg 22%
    17:00 +35°C° 0 mm 5 mps 614 mmHg 29%
    18:00 +33°C° 0 mm 5 mps 613 mmHg 37%
    19:00 +30°C° 0 mm 5 mps 613 mmHg 44%
    20:00 +29°C° 0.3 mm 5 mps 613 mmHg 48%
    21:00 +28°C° 0.3 mm 4 mps 613 mmHg 53%
    22:00 +27°C° 0.3 mm 4 mps 614 mmHg 57%
    23:00 +27°C° 0.1 mm 4 mps 613 mmHg 59%
    Show more